Year,Month,Day,Hour,Minute,Value (Times are PST for temperature in C)
2018,10,15,00,00,4.60
2018,10,15,00,01,4.60
2018,10,15,00,02,4.60
2018,10,15,00,03,4.60
2018,10,15,00,04,4.60
2018,10,15,00,05,4.50
2018,10,15,00,06,4.50
2018,10,15,00,07,4.50
2018,10,15,00,08,4.50
2018,10,15,00,09,4.40
2018,10,15,00,10,4.40
2018,10,15,00,11,4.40
2018,10,15,00,12,4.40
2018,10,15,00,13,4.30
2018,10,15,00,14,4.30
2018,10,15,00,15,4.30
2018,10,15,00,16,4.30
2018,10,15,00,17,4.30
2018,10,15,00,18,4.30
2018,10,15,00,19,4.30
2018,10,15,00,20,4.30
2018,10,15,00,21,4.30
2018,10,15,00,22,4.30
2018,10,15,00,23,4.30
2018,10,15,00,24,4.30
2018,10,15,00,25,4.30
2018,10,15,00,26,4.20
2018,10,15,00,27,4.20
2018,10,15,00,28,4.20
2018,10,15,00,29,4.20
2018,10,15,00,30,4.20
2018,10,15,00,31,4.20
2018,10,15,00,32,4.20
2018,10,15,00,33,4.20
2018,10,15,00,34,4.20
2018,10,15,00,35,4.20
2018,10,15,00,36,4.10
2018,10,15,00,37,4.10
2018,10,15,00,38,4.10
2018,10,15,00,39,4.10
2018,10,15,00,40,4.00
2018,10,15,00,41,4.00
2018,10,15,00,42,3.90
2018,10,15,00,43,3.90
2018,10,15,00,44,3.90
2018,10,15,00,45,3.90
2018,10,15,00,46,3.80
2018,10,15,00,47,3.80
2018,10,15,00,48,3.80
2018,10,15,00,49,3.80
2018,10,15,00,50,3.80
2018,10,15,00,51,3.80
2018,10,15,00,52,3.80
2018,10,15,00,53,3.80
2018,10,15,00,54,3.80
2018,10,15,00,55,3.80
2018,10,15,00,56,3.80
2018,10,15,00,57,3.80
2018,10,15,00,58,3.80
2018,10,15,00,59,3.80
2018,10,15,01,00,3.80
2018,10,15,01,01,3.90
2018,10,15,01,02,3.90
2018,10,15,01,03,3.90
2018,10,15,01,04,3.90
2018,10,15,01,05,3.90
2018,10,15,01,06,3.90
2018,10,15,01,07,3.90
2018,10,15,01,08,3.90
2018,10,15,01,09,3.90
2018,10,15,01,10,3.90
2018,10,15,01,11,3.90
2018,10,15,01,12,3.90
2018,10,15,01,13,3.80
2018,10,15,01,14,3.80
2018,10,15,01,15,3.80
2018,10,15,01,16,3.80
2018,10,15,01,17,3.80
2018,10,15,01,18,3.80
2018,10,15,01,19,3.80
2018,10,15,01,20,3.70
2018,10,15,01,21,3.70
2018,10,15,01,22,3.70
2018,10,15,01,23,3.70
2018,10,15,01,24,3.70
2018,10,15,01,25,3.70
2018,10,15,01,26,3.70
2018,10,15,01,27,3.70
2018,10,15,01,28,3.70
2018,10,15,01,29,3.70
2018,10,15,01,30,3.70
2018,10,15,01,31,3.70
2018,10,15,01,32,3.70
2018,10,15,01,33,3.70
2018,10,15,01,34,3.60
2018,10,15,01,35,3.60
2018,10,15,01,36,3.60
2018,10,15,01,37,3.60
2018,10,15,01,38,3.60
2018,10,15,01,39,3.50
2018,10,15,01,40,3.50
2018,10,15,01,41,3.60
2018,10,15,01,42,3.60
2018,10,15,01,43,3.60
2018,10,15,01,44,3.60
2018,10,15,01,45,3.60
2018,10,15,01,46,3.50
2018,10,15,01,47,3.50
2018,10,15,01,48,3.50
2018,10,15,01,49,3.40
2018,10,15,01,50,3.40
2018,10,15,01,51,3.30
2018,10,15,01,52,3.30
2018,10,15,01,53,3.30
2018,10,15,01,54,3.30
2018,10,15,01,55,3.20
2018,10,15,01,56,3.20
2018,10,15,01,57,3.20
2018,10,15,01,58,3.20
2018,10,15,01,59,3.20
2018,10,15,02,00,3.20
2018,10,15,02,01,3.10
2018,10,15,02,02,3.10
2018,10,15,02,03,3.10
2018,10,15,02,04,3.00
2018,10,15,02,05,3.00
2018,10,15,02,06,3.00
2018,10,15,02,07,2.90
2018,10,15,02,08,2.90
2018,10,15,02,09,2.90
2018,10,15,02,10,2.80
2018,10,15,02,11,2.80
2018,10,15,02,12,2.90
2018,10,15,02,13,2.90
2018,10,15,02,14,2.90
2018,10,15,02,15,2.90
2018,10,15,02,16,2.90
2018,10,15,02,17,2.90
2018,10,15,02,18,2.90
2018,10,15,02,19,2.90
2018,10,15,02,20,2.90
2018,10,15,02,21,2.90
2018,10,15,02,22,2.90
2018,10,15,02,23,2.90
2018,10,15,02,24,2.90
2018,10,15,02,25,2.90
2018,10,15,02,26,3.00
2018,10,15,02,27,3.00
2018,10,15,02,28,3.00
2018,10,15,02,29,3.00
2018,10,15,02,30,3.00
2018,10,15,02,31,3.00
2018,10,15,02,32,3.00
2018,10,15,02,33,3.00
2018,10,15,02,34,3.00
2018,10,15,02,35,2.90
2018,10,15,02,36,2.90
2018,10,15,02,37,2.90
2018,10,15,02,38,2.90
2018,10,15,02,39,2.90
2018,10,15,02,40,2.90
2018,10,15,02,41,2.80
2018,10,15,02,42,2.80
2018,10,15,02,43,2.80
2018,10,15,02,44,2.80
2018,10,15,02,45,2.80
2018,10,15,02,46,2.80
2018,10,15,02,47,2.80
2018,10,15,02,48,2.90
2018,10,15,02,49,2.90
2018,10,15,02,50,2.90
2018,10,15,02,51,2.90
2018,10,15,02,52,2.90
2018,10,15,02,53,2.90
2018,10,15,02,54,2.90
2018,10,15,02,55,2.90
2018,10,15,02,56,2.90
2018,10,15,02,57,3.00
2018,10,15,02,58,3.00
2018,10,15,02,59,3.10
2018,10,15,03,00,3.10
2018,10,15,03,01,3.10
2018,10,15,03,02,3.10
2018,10,15,03,03,3.00
2018,10,15,03,04,3.00
2018,10,15,03,05,3.00
2018,10,15,03,06,2.90
2018,10,15,03,07,2.90
2018,10,15,03,08,2.90
2018,10,15,03,09,2.90
2018,10,15,03,10,2.90
2018,10,15,03,11,2.80
2018,10,15,03,12,2.80
2018,10,15,03,13,2.80
2018,10,15,03,14,2.80
2018,10,15,03,15,2.80
2018,10,15,03,16,2.80
2018,10,15,03,17,2.80
2018,10,15,03,18,2.80
2018,10,15,03,19,2.80
2018,10,15,03,20,2.70
2018,10,15,03,21,2.70
2018,10,15,03,22,2.70
2018,10,15,03,23,2.70
2018,10,15,03,24,2.70
2018,10,15,03,25,2.70
2018,10,15,03,26,2.60
2018,10,15,03,27,2.60
2018,10,15,03,28,2.60
2018,10,15,03,29,2.60
2018,10,15,03,30,2.60
2018,10,15,03,31,2.50
2018,10,15,03,32,2.50
2018,10,15,03,33,2.50
2018,10,15,03,34,2.40
2018,10,15,03,35,2.40
2018,10,15,03,36,2.40
2018,10,15,03,37,2.40
2018,10,15,03,38,2.40
2018,10,15,03,39,2.40
2018,10,15,03,40,2.40
2018,10,15,03,41,2.40
2018,10,15,03,42,2.40
2018,10,15,03,43,2.40
2018,10,15,03,44,2.40
2018,10,15,03,45,2.40
2018,10,15,03,46,2.40
2018,10,15,03,47,2.40
2018,10,15,03,48,2.40
2018,10,15,03,49,2.40
2018,10,15,03,50,2.40
2018,10,15,03,51,2.40
2018,10,15,03,52,2.40
2018,10,15,03,53,2.40
2018,10,15,03,54,2.40
2018,10,15,03,55,2.40
2018,10,15,03,56,2.40
2018,10,15,03,57,2.40
2018,10,15,03,58,2.40
2018,10,15,03,59,2.40
2018,10,15,04,00,2.40
2018,10,15,04,01,2.40
2018,10,15,04,02,2.40
2018,10,15,04,03,2.40
2018,10,15,04,04,2.40
2018,10,15,04,05,2.40
2018,10,15,04,06,2.30
2018,10,15,04,07,2.30
2018,10,15,04,08,2.30
2018,10,15,04,09,2.30
2018,10,15,04,10,2.30
2018,10,15,04,11,2.30
2018,10,15,04,12,2.30
2018,10,15,04,13,2.20
2018,10,15,04,14,2.20
2018,10,15,04,15,2.20
2018,10,15,04,16,2.20
2018,10,15,04,17,2.20
2018,10,15,04,18,2.20
2018,10,15,04,19,2.20
2018,10,15,04,20,2.20
2018,10,15,04,21,2.20
2018,10,15,04,22,2.20
2018,10,15,04,23,2.10
2018,10,15,04,24,2.10
2018,10,15,04,25,2.10
2018,10,15,04,26,2.10
2018,10,15,04,27,2.10
2018,10,15,04,28,2.00
2018,10,15,04,29,2.00
2018,10,15,04,30,2.00
2018,10,15,04,31,2.00
2018,10,15,04,32,2.00
2018,10,15,04,33,2.00
2018,10,15,04,34,2.00
2018,10,15,04,35,2.00
2018,10,15,04,36,2.00
2018,10,15,04,37,2.00
2018,10,15,04,38,2.00
2018,10,15,04,39,2.00
2018,10,15,04,40,2.00
2018,10,15,04,41,2.00
2018,10,15,04,42,2.00
2018,10,15,04,43,2.10
2018,10,15,04,44,2.10
2018,10,15,04,45,2.10
2018,10,15,04,46,2.10
2018,10,15,04,47,2.10
2018,10,15,04,48,2.10
2018,10,15,04,49,2.10
2018,10,15,04,50,2.10
2018,10,15,04,51,2.10
2018,10,15,04,52,2.10
2018,10,15,04,53,2.10
2018,10,15,04,54,2.10
2018,10,15,04,55,2.10
2018,10,15,04,56,2.10
2018,10,15,04,57,2.10
2018,10,15,04,58,2.10
2018,10,15,04,59,2.10
2018,10,15,05,00,2.10
2018,10,15,05,01,2.10
2018,10,15,05,02,2.10
2018,10,15,05,03,2.20
2018,10,15,05,04,2.20
2018,10,15,05,05,2.20
2018,10,15,05,06,2.20
2018,10,15,05,07,2.20
2018,10,15,05,08,2.20
2018,10,15,05,09,2.20
2018,10,15,05,10,2.20
2018,10,15,05,11,2.20
2018,10,15,05,12,2.20
2018,10,15,05,13,2.20
2018,10,15,05,14,2.20
2018,10,15,05,15,2.20
2018,10,15,05,16,2.20
2018,10,15,05,17,2.20
2018,10,15,05,18,2.20
2018,10,15,05,19,2.10
2018,10,15,05,20,2.10
2018,10,15,05,21,2.10
2018,10,15,05,22,2.10
2018,10,15,05,23,2.00
2018,10,15,05,24,2.00
2018,10,15,05,25,2.00
2018,10,15,05,26,2.00
2018,10,15,05,27,1.90
2018,10,15,05,28,1.90
2018,10,15,05,29,1.80
2018,10,15,05,30,1.80
2018,10,15,05,31,1.80
2018,10,15,05,32,1.80
2018,10,15,05,33,1.70
2018,10,15,05,34,1.70
2018,10,15,05,35,1.70
2018,10,15,05,36,1.70
2018,10,15,05,37,1.70
2018,10,15,05,38,1.70
2018,10,15,05,39,1.60
2018,10,15,05,40,1.60
2018,10,15,05,41,1.60
2018,10,15,05,42,1.60
2018,10,15,05,43,1.60
2018,10,15,05,44,1.60
2018,10,15,05,45,1.70
2018,10,15,05,46,1.70
2018,10,15,05,47,1.70
2018,10,15,05,48,1.70
2018,10,15,05,49,1.70
2018,10,15,05,50,1.70
2018,10,15,05,51,1.70
2018,10,15,05,52,1.80
2018,10,15,05,53,1.80
2018,10,15,05,54,1.80
2018,10,15,05,55,1.80
2018,10,15,05,56,1.90
2018,10,15,05,57,1.90
2018,10,15,05,58,1.90
2018,10,15,05,59,1.90
2018,10,15,06,00,1.90
2018,10,15,06,01,1.90
2018,10,15,06,02,1.90
2018,10,15,06,03,1.90
2018,10,15,06,04,1.80
2018,10,15,06,05,1.80
2018,10,15,06,06,1.80
2018,10,15,06,07,1.80
2018,10,15,06,08,1.80
2018,10,15,06,09,1.80
2018,10,15,06,10,1.80
2018,10,15,06,11,1.90
2018,10,15,06,12,1.90
2018,10,15,06,13,1.90
2018,10,15,06,14,1.90
2018,10,15,06,15,1.90
2018,10,15,06,16,1.80
2018,10,15,06,17,1.80
2018,10,15,06,18,1.80
2018,10,15,06,19,1.80
2018,10,15,06,20,1.70
2018,10,15,06,21,1.70
2018,10,15,06,22,1.70
2018,10,15,06,23,1.60
2018,10,15,06,24,1.60
2018,10,15,06,25,1.50
2018,10,15,06,26,1.50
2018,10,15,06,27,1.50
2018,10,15,06,28,1.50
2018,10,15,06,29,1.50
2018,10,15,06,30,1.50
2018,10,15,06,31,1.50
2018,10,15,06,32,1.50
2018,10,15,06,33,1.50
2018,10,15,06,34,1.50
2018,10,15,06,35,1.50
2018,10,15,06,36,1.40
2018,10,15,06,37,1.40
2018,10,15,06,38,1.40
2018,10,15,06,39,1.40
2018,10,15,06,40,1.40
2018,10,15,06,41,1.40
2018,10,15,06,42,1.40
2018,10,15,06,43,1.40
2018,10,15,06,44,1.50
2018,10,15,06,45,1.50
2018,10,15,06,46,1.50
2018,10,15,06,47,1.50
2018,10,15,06,48,1.60
2018,10,15,06,49,1.60
2018,10,15,06,50,1.60
2018,10,15,06,51,1.60
2018,10,15,06,52,1.60
2018,10,15,06,53,1.60
2018,10,15,06,54,1.60
2018,10,15,06,55,1.60
2018,10,15,06,56,1.70
2018,10,15,06,57,1.70
2018,10,15,06,58,1.70
2018,10,15,06,59,1.70
2018,10,15,07,00,1.70
2018,10,15,07,01,1.70
2018,10,15,07,02,1.70
2018,10,15,07,03,1.70
2018,10,15,07,04,1.70
2018,10,15,07,05,1.60
2018,10,15,07,06,1.60
2018,10,15,07,07,1.60
2018,10,15,07,08,1.60
2018,10,15,07,09,1.60
2018,10,15,07,10,1.60
2018,10,15,07,11,1.60
2018,10,15,07,12,1.60
2018,10,15,07,13,1.60
2018,10,15,07,14,1.60
2018,10,15,07,15,1.50
2018,10,15,07,16,1.50
2018,10,15,07,17,1.40
2018,10,15,07,18,1.40
2018,10,15,07,19,1.40
2018,10,15,07,20,1.40
2018,10,15,07,21,1.40
2018,10,15,07,22,1.40
2018,10,15,07,23,1.40
2018,10,15,07,24,1.30
2018,10,15,07,25,1.30
2018,10,15,07,26,1.30
2018,10,15,07,27,1.30
2018,10,15,07,28,1.30
2018,10,15,07,29,1.30
2018,10,15,07,30,1.30
2018,10,15,07,31,1.30
2018,10,15,07,32,1.30
2018,10,15,07,33,1.30
2018,10,15,07,34,1.30
2018,10,15,07,35,1.40
2018,10,15,07,36,1.40
2018,10,15,07,37,1.40
2018,10,15,07,38,1.40
2018,10,15,07,39,1.40
2018,10,15,07,40,1.40
2018,10,15,07,41,1.40
2018,10,15,07,42,1.40
2018,10,15,07,43,1.40
2018,10,15,07,44,1.40
2018,10,15,07,45,1.40
2018,10,15,07,46,1.40
2018,10,15,07,47,1.40
2018,10,15,07,48,1.50
2018,10,15,07,49,1.50
2018,10,15,07,50,1.50
2018,10,15,07,51,1.50
2018,10,15,07,52,1.60
2018,10,15,07,53,1.60
2018,10,15,07,54,1.60
2018,10,15,07,55,1.60
2018,10,15,07,56,1.60
2018,10,15,07,57,1.60
2018,10,15,07,58,1.60
2018,10,15,07,59,1.60
2018,10,15,08,00,1.60
2018,10,15,08,01,1.60
2018,10,15,08,02,1.60
2018,10,15,08,03,1.70
2018,10,15,08,04,1.60
2018,10,15,08,05,1.70
2018,10,15,08,06,1.70
2018,10,15,08,07,1.70
2018,10,15,08,08,1.70
2018,10,15,08,09,1.70
2018,10,15,08,10,1.70
2018,10,15,08,11,1.70
2018,10,15,08,12,1.80
2018,10,15,08,13,1.80
2018,10,15,08,14,1.80
2018,10,15,08,15,1.80
2018,10,15,08,16,1.90
2018,10,15,08,17,1.90
2018,10,15,08,18,1.90
2018,10,15,08,19,1.90
2018,10,15,08,20,2.00
2018,10,15,08,21,2.10
2018,10,15,08,22,2.10
2018,10,15,08,23,2.20
2018,10,15,08,24,2.20
2018,10,15,08,25,2.20
2018,10,15,08,26,2.30
2018,10,15,08,27,2.30
2018,10,15,08,28,2.30
2018,10,15,08,29,2.30
2018,10,15,08,30,2.30
2018,10,15,08,31,2.30
2018,10,15,08,32,2.30
2018,10,15,08,33,2.40
2018,10,15,08,34,2.40
2018,10,15,08,35,2.40
2018,10,15,08,36,2.40
2018,10,15,08,37,2.40
2018,10,15,08,38,2.50
2018,10,15,08,39,2.50
2018,10,15,08,40,2.60
2018,10,15,08,41,2.60
2018,10,15,08,42,2.70
2018,10,15,08,43,2.70
2018,10,15,08,44,2.70
2018,10,15,08,45,2.80
2018,10,15,08,46,2.80
2018,10,15,08,47,3.00
2018,10,15,08,48,3.10
2018,10,15,08,49,3.20
2018,10,15,08,50,3.30
2018,10,15,08,51,3.40
2018,10,15,08,52,3.50
2018,10,15,08,53,3.50
2018,10,15,08,54,3.60
2018,10,15,08,55,3.60
2018,10,15,08,56,3.70
2018,10,15,08,57,3.80
2018,10,15,08,58,3.80
2018,10,15,08,59,3.80
2018,10,15,09,00,3.80
2018,10,15,09,01,3.80
2018,10,15,09,02,3.80
2018,10,15,09,03,3.80
2018,10,15,09,04,3.80
2018,10,15,09,05,3.90
2018,10,15,09,06,3.90
2018,10,15,09,07,3.90
2018,10,15,09,08,4.00
2018,10,15,09,09,4.00
2018,10,15,09,10,4.10
2018,10,15,09,11,4.10
2018,10,15,09,12,4.20
2018,10,15,09,13,4.20
2018,10,15,09,14,4.30
2018,10,15,09,15,4.40
2018,10,15,09,16,4.40
2018,10,15,09,17,4.50
2018,10,15,09,18,4.50
2018,10,15,09,19,4.60
2018,10,15,09,20,4.70
2018,10,15,09,21,4.70
2018,10,15,09,22,4.80
2018,10,15,09,23,4.90
2018,10,15,09,24,5.00
2018,10,15,09,25,5.10
2018,10,15,09,26,5.20
2018,10,15,09,27,5.30
2018,10,15,09,28,5.30
2018,10,15,09,29,5.30
2018,10,15,09,30,5.40
2018,10,15,09,31,5.40
2018,10,15,09,32,5.40
2018,10,15,09,33,5.40
2018,10,15,09,34,5.40
2018,10,15,09,35,5.50
2018,10,15,09,36,5.50
2018,10,15,09,37,5.50
2018,10,15,09,38,5.60
2018,10,15,09,39,5.60
2018,10,15,09,40,5.70
2018,10,15,09,41,5.70
2018,10,15,09,42,5.80
2018,10,15,09,43,5.90
2018,10,15,09,44,6.00
2018,10,15,09,45,6.10
2018,10,15,09,46,6.10
2018,10,15,09,47,6.20
2018,10,15,09,48,6.30
2018,10,15,09,49,6.30
2018,10,15,09,50,6.30
2018,10,15,09,51,6.30
2018,10,15,09,52,6.30
2018,10,15,09,53,6.30
2018,10,15,09,54,6.40
2018,10,15,09,55,6.40
2018,10,15,09,56,6.50
2018,10,15,09,57,6.50
2018,10,15,09,58,6.60
2018,10,15,09,59,6.60
2018,10,15,10,00,6.70
2018,10,15,10,01,6.70
2018,10,15,10,02,6.80
2018,10,15,10,03,6.90
2018,10,15,10,04,7.00
2018,10,15,10,05,7.00
2018,10,15,10,06,7.10
2018,10,15,10,07,7.20
2018,10,15,10,08,7.30
2018,10,15,10,09,7.30
2018,10,15,10,10,7.40
2018,10,15,10,11,7.50
2018,10,15,10,12,7.60
2018,10,15,10,13,7.70
2018,10,15,10,14,7.80
2018,10,15,10,15,7.80
2018,10,15,10,16,7.90
2018,10,15,10,17,8.00
2018,10,15,10,18,8.10
2018,10,15,10,19,8.10
2018,10,15,10,20,8.20
2018,10,15,10,21,8.30
2018,10,15,10,22,8.40
2018,10,15,10,23,8.50
2018,10,15,10,24,8.60
2018,10,15,10,25,8.60
2018,10,15,10,26,8.70
2018,10,15,10,27,8.70
2018,10,15,10,28,8.80
2018,10,15,10,29,8.90
2018,10,15,10,30,9.00
2018,10,15,10,31,9.00
2018,10,15,10,32,9.10
2018,10,15,10,33,9.20
2018,10,15,10,34,9.30
2018,10,15,10,35,9.40
2018,10,15,10,36,9.50
2018,10,15,10,37,9.70
2018,10,15,10,38,9.70
2018,10,15,10,39,9.80
2018,10,15,10,40,9.90
2018,10,15,10,41,10.00
2018,10,15,10,42,10.10
2018,10,15,10,43,10.10
2018,10,15,10,44,10.20
2018,10,15,10,45,10.30
2018,10,15,10,46,10.40
2018,10,15,10,47,10.50
2018,10,15,10,48,10.50
2018,10,15,10,49,10.60
2018,10,15,10,50,10.70
2018,10,15,10,51,10.80
2018,10,15,10,52,10.90
2018,10,15,10,53,11.00
2018,10,15,10,54,11.10
2018,10,15,10,55,11.20
2018,10,15,10,56,11.30
2018,10,15,10,57,11.40
2018,10,15,10,58,11.50
2018,10,15,10,59,11.60
2018,10,15,11,00,11.60
2018,10,15,11,01,11.80
2018,10,15,11,02,11.90
2018,10,15,11,03,12.00
2018,10,15,11,04,12.10
2018,10,15,11,05,12.20
2018,10,15,11,06,12.30
2018,10,15,11,07,12.30
2018,10,15,11,08,12.40
2018,10,15,11,09,12.50
2018,10,15,11,10,12.60
2018,10,15,11,11,12.60
2018,10,15,11,12,12.70
2018,10,15,11,13,12.80
2018,10,15,11,14,12.80
2018,10,15,11,15,12.90
2018,10,15,11,16,13.00
2018,10,15,11,17,13.10
2018,10,15,11,18,13.30
2018,10,15,11,19,13.40
2018,10,15,11,20,13.50
2018,10,15,11,21,13.50
2018,10,15,11,22,13.60
2018,10,15,11,23,13.70
2018,10,15,11,24,13.70
2018,10,15,11,25,13.80
2018,10,15,11,26,13.80
2018,10,15,11,27,13.80
2018,10,15,11,28,13.80
2018,10,15,11,29,13.80
2018,10,15,11,30,13.80
2018,10,15,11,31,13.80
2018,10,15,11,32,13.80
2018,10,15,11,33,13.80
2018,10,15,11,34,13.80
2018,10,15,11,35,13.90
2018,10,15,11,36,13.90
2018,10,15,11,37,14.00
2018,10,15,11,38,14.10
2018,10,15,11,39,14.10
2018,10,15,11,40,14.20
2018,10,15,11,41,14.30
2018,10,15,11,42,14.30
2018,10,15,11,43,14.40
2018,10,15,11,44,14.40
2018,10,15,11,45,14.50
2018,10,15,11,46,14.50
2018,10,15,11,47,14.50
2018,10,15,11,48,14.60
2018,10,15,11,49,14.70
2018,10,15,11,50,14.70
2018,10,15,11,51,14.80
2018,10,15,11,52,14.80
2018,10,15,11,53,14.80
2018,10,15,11,54,14.80
2018,10,15,11,55,14.80
2018,10,15,11,56,14.80
2018,10,15,11,57,14.80
2018,10,15,11,58,14.90
2018,10,15,11,59,14.90
2018,10,15,12,00,14.90
2018,10,15,12,01,15.00
2018,10,15,12,02,15.00
2018,10,15,12,03,15.00
2018,10,15,12,04,15.00
2018,10,15,12,05,15.00
2018,10,15,12,06,15.00
2018,10,15,12,07,15.00
2018,10,15,12,08,15.10
2018,10,15,12,09,15.20
2018,10,15,12,10,15.30
2018,10,15,12,11,15.40
2018,10,15,12,12,15.50
2018,10,15,12,13,15.60
2018,10,15,12,14,15.70
2018,10,15,12,15,15.80
2018,10,15,12,16,15.80
2018,10,15,12,17,15.90
2018,10,15,12,18,16.00
2018,10,15,12,19,16.10
2018,10,15,12,20,16.20
2018,10,15,12,21,16.30
2018,10,15,12,22,16.30
2018,10,15,12,23,16.30
2018,10,15,12,24,16.40
2018,10,15,12,25,16.40
2018,10,15,12,26,16.40
2018,10,15,12,27,16.40
2018,10,15,12,28,16.40
2018,10,15,12,29,16.50
2018,10,15,12,30,16.50
2018,10,15,12,31,16.60
2018,10,15,12,32,16.60
2018,10,15,12,33,16.60
2018,10,15,12,34,16.50
2018,10,15,12,35,16.60
2018,10,15,12,36,16.60
2018,10,15,12,37,16.60
2018,10,15,12,38,16.70
2018,10,15,12,39,16.70
2018,10,15,12,40,16.80
2018,10,15,12,41,16.80
2018,10,15,12,42,16.80
2018,10,15,12,43,16.90
2018,10,15,12,44,16.90
2018,10,15,12,45,16.90
2018,10,15,12,46,16.90
2018,10,15,12,47,17.00
2018,10,15,12,48,17.00
2018,10,15,12,49,17.00
2018,10,15,12,50,16.90
2018,10,15,12,51,16.90
2018,10,15,12,52,16.90
2018,10,15,12,53,16.90
2018,10,15,12,54,16.90
2018,10,15,12,55,16.90
2018,10,15,12,56,16.90
2018,10,15,12,57,16.90
2018,10,15,12,58,16.90
2018,10,15,12,59,16.90
2018,10,15,13,00,17.00
2018,10,15,13,01,17.00
2018,10,15,13,02,17.00
2018,10,15,13,03,17.10
2018,10,15,13,04,17.10
2018,10,15,13,05,17.10
2018,10,15,13,06,17.10
2018,10,15,13,07,17.10
2018,10,15,13,08,17.20
2018,10,15,13,09,17.10
2018,10,15,13,10,17.10
2018,10,15,13,11,17.00
2018,10,15,13,12,17.00
2018,10,15,13,13,17.00
2018,10,15,13,14,17.10
2018,10,15,13,15,17.10
2018,10,15,13,16,17.20
2018,10,15,13,17,17.30
2018,10,15,13,18,17.30
2018,10,15,13,19,17.30
2018,10,15,13,20,17.40
2018,10,15,13,21,17.40
2018,10,15,13,22,17.50
2018,10,15,13,23,17.60
2018,10,15,13,24,17.70
2018,10,15,13,25,17.80
2018,10,15,13,26,17.80
2018,10,15,13,27,17.80
2018,10,15,13,28,17.90
2018,10,15,13,29,17.90
2018,10,15,13,30,17.90
2018,10,15,13,31,17.90
2018,10,15,13,32,17.90
2018,10,15,13,33,18.00
2018,10,15,13,34,18.10
2018,10,15,13,35,18.10
2018,10,15,13,36,18.20
2018,10,15,13,37,18.30
2018,10,15,13,38,18.40
2018,10,15,13,39,18.50
2018,10,15,13,40,18.60
2018,10,15,13,41,18.70
2018,10,15,13,42,18.70
2018,10,15,13,43,18.70
2018,10,15,13,44,18.70
2018,10,15,13,45,18.70
2018,10,15,13,46,18.70
2018,10,15,13,47,18.80
2018,10,15,13,48,18.80
2018,10,15,13,49,18.80
2018,10,15,13,50,18.80
2018,10,15,13,51,18.90
2018,10,15,13,52,18.90
2018,10,15,13,53,19.00
2018,10,15,13,54,19.10
2018,10,15,13,55,19.20
2018,10,15,13,56,19.30
2018,10,15,13,57,19.30
2018,10,15,13,58,19.40
2018,10,15,13,59,19.50
2018,10,15,14,00,19.50
2018,10,15,14,01,19.60
2018,10,15,14,02,19.50
2018,10,15,14,03,19.50
2018,10,15,14,04,19.40
2018,10,15,14,05,19.40
2018,10,15,14,06,19.30
2018,10,15,14,07,19.20
2018,10,15,14,08,19.20
2018,10,15,14,09,19.10
2018,10,15,14,10,19.10
2018,10,15,14,11,19.00
2018,10,15,14,12,18.90
2018,10,15,14,13,18.80
2018,10,15,14,14,18.80
2018,10,15,14,15,18.70
2018,10,15,14,16,18.70
2018,10,15,14,17,18.70
2018,10,15,14,18,18.70
2018,10,15,14,19,18.70
2018,10,15,14,20,18.60
2018,10,15,14,21,18.60
2018,10,15,14,22,18.50
2018,10,15,14,23,18.50
2018,10,15,14,24,18.50
2018,10,15,14,25,18.50
2018,10,15,14,26,18.60
2018,10,15,14,27,18.70
2018,10,15,14,28,18.80
2018,10,15,14,29,19.00
2018,10,15,14,30,19.10
2018,10,15,14,31,19.20
2018,10,15,14,32,19.30
2018,10,15,14,33,19.30
2018,10,15,14,34,19.40
2018,10,15,14,35,19.30
2018,10,15,14,36,19.30
2018,10,15,14,37,19.20
2018,10,15,14,38,19.20
2018,10,15,14,39,19.10
2018,10,15,14,40,19.00
2018,10,15,14,41,19.00
2018,10,15,14,42,19.00
2018,10,15,14,43,19.00
2018,10,15,14,44,19.10
2018,10,15,14,45,19.10
2018,10,15,14,46,19.20
2018,10,15,14,47,19.20
2018,10,15,14,48,19.30
2018,10,15,14,49,19.40
2018,10,15,14,50,19.50
2018,10,15,14,51,19.60
2018,10,15,14,52,19.70
2018,10,15,14,53,19.70
2018,10,15,14,54,19.80
2018,10,15,14,55,19.80
2018,10,15,14,56,19.70
2018,10,15,14,57,19.60
2018,10,15,14,58,19.60
2018,10,15,14,59,19.60
2018,10,15,15,00,19.60
2018,10,15,15,01,19.60
2018,10,15,15,02,19.60
2018,10,15,15,03,19.50
2018,10,15,15,04,19.40
2018,10,15,15,05,19.30
2018,10,15,15,06,19.20
2018,10,15,15,07,19.20
2018,10,15,15,08,19.10
2018,10,15,15,09,19.10
2018,10,15,15,10,19.10
2018,10,15,15,11,19.10
2018,10,15,15,12,19.10
2018,10,15,15,13,19.10
2018,10,15,15,14,19.20
2018,10,15,15,15,19.20
2018,10,15,15,16,19.20
2018,10,15,15,17,19.20
2018,10,15,15,18,19.20
2018,10,15,15,19,19.20
2018,10,15,15,20,19.30
2018,10,15,15,21,19.30
2018,10,15,15,22,19.30
2018,10,15,15,23,19.30
2018,10,15,15,24,19.40
2018,10,15,15,25,19.40
2018,10,15,15,26,19.40
2018,10,15,15,27,19.40
2018,10,15,15,28,19.40
2018,10,15,15,29,19.40
2018,10,15,15,30,19.50
2018,10,15,15,31,19.60
2018,10,15,15,32,19.60
2018,10,15,15,33,19.70
2018,10,15,15,34,19.70
2018,10,15,15,35,19.80
2018,10,15,15,36,19.80
2018,10,15,15,37,19.90
2018,10,15,15,38,19.90
2018,10,15,15,39,19.90
2018,10,15,15,40,20.00
2018,10,15,15,41,20.10
2018,10,15,15,42,20.20
2018,10,15,15,43,20.20
2018,10,15,15,44,20.20
2018,10,15,15,45,20.30
2018,10,15,15,46,20.30
2018,10,15,15,47,20.30
2018,10,15,15,48,20.30
2018,10,15,15,49,20.30
2018,10,15,15,50,20.30
2018,10,15,15,51,20.30
2018,10,15,15,52,20.30
2018,10,15,15,53,20.30
2018,10,15,15,54,20.30
2018,10,15,15,55,20.30
2018,10,15,15,56,20.30
2018,10,15,15,57,20.30
2018,10,15,15,58,20.30
2018,10,15,15,59,20.30
2018,10,15,16,00,20.30
2018,10,15,16,01,20.30
2018,10,15,16,02,20.20
2018,10,15,16,03,20.20
2018,10,15,16,04,20.20
2018,10,15,16,05,20.20
2018,10,15,16,06,20.10
2018,10,15,16,07,20.10
2018,10,15,16,08,20.10
2018,10,15,16,09,20.00
2018,10,15,16,10,19.90
2018,10,15,16,11,19.80
2018,10,15,16,12,19.80
2018,10,15,16,13,19.70
2018,10,15,16,14,19.80
2018,10,15,16,15,19.80
2018,10,15,16,16,19.90
2018,10,15,16,17,19.90
2018,10,15,16,18,19.90
2018,10,15,16,19,19.90
2018,10,15,16,20,19.80
2018,10,15,16,21,19.80
2018,10,15,16,22,19.70
2018,10,15,16,23,19.70
2018,10,15,16,24,19.70
2018,10,15,16,25,19.70
2018,10,15,16,26,19.70
2018,10,15,16,27,19.70
2018,10,15,16,28,19.70
2018,10,15,16,29,19.70
2018,10,15,16,30,19.80
2018,10,15,16,31,19.80
2018,10,15,16,32,19.90
2018,10,15,16,33,19.90
2018,10,15,16,34,19.90
2018,10,15,16,35,19.90
2018,10,15,16,36,19.80
2018,10,15,16,37,19.80
2018,10,15,16,38,19.80
2018,10,15,16,39,19.90
2018,10,15,16,40,19.90
2018,10,15,16,41,19.80
2018,10,15,16,42,19.80
2018,10,15,16,43,19.70
2018,10,15,16,44,19.70
2018,10,15,16,45,19.60
2018,10,15,16,46,19.50
2018,10,15,16,47,19.50
2018,10,15,16,48,19.40
2018,10,15,16,49,19.40
2018,10,15,16,50,19.40
2018,10,15,16,51,19.40
2018,10,15,16,52,19.40
2018,10,15,16,53,19.40
2018,10,15,16,54,19.40
2018,10,15,16,55,19.40
2018,10,15,16,56,19.40
2018,10,15,16,57,19.30
2018,10,15,16,58,19.30
2018,10,15,16,59,19.20
2018,10,15,17,00,19.20
2018,10,15,17,01,19.10
2018,10,15,17,02,19.10
2018,10,15,17,03,19.10
2018,10,15,17,04,19.10
2018,10,15,17,05,19.10
2018,10,15,17,06,19.00
2018,10,15,17,07,19.00
2018,10,15,17,08,18.90
2018,10,15,17,09,18.90
2018,10,15,17,10,18.80
2018,10,15,17,11,18.80
2018,10,15,17,12,18.80
2018,10,15,17,13,18.80
2018,10,15,17,14,18.80
2018,10,15,17,15,18.70
2018,10,15,17,16,18.70
2018,10,15,17,17,18.70
2018,10,15,17,18,18.70
2018,10,15,17,19,18.70
2018,10,15,17,20,18.70
2018,10,15,17,21,18.70
2018,10,15,17,22,18.60
2018,10,15,17,23,18.60
2018,10,15,17,24,18.60
2018,10,15,17,25,18.50
2018,10,15,17,26,18.50
2018,10,15,17,27,18.40
2018,10,15,17,28,18.40
2018,10,15,17,29,18.40
2018,10,15,17,30,18.30
2018,10,15,17,31,18.30
2018,10,15,17,32,18.30
2018,10,15,17,33,18.20
2018,10,15,17,34,18.20
2018,10,15,17,35,18.20
2018,10,15,17,36,18.10
2018,10,15,17,37,18.10
2018,10,15,17,38,18.00
2018,10,15,17,39,18.00
2018,10,15,17,40,17.90
2018,10,15,17,41,17.90
2018,10,15,17,42,17.90
2018,10,15,17,43,17.80
2018,10,15,17,44,17.80
2018,10,15,17,45,17.80
2018,10,15,17,46,17.70
2018,10,15,17,47,17.70